K6LCM-13 Weather Reports


time (UTC)temp
C
wind
direction
speed
KPH
gust
KPH
rain 1hr
cm
rain 24hr
cm
rain mn
cm
humidity
%
barometer
mb
20260507064641 14 58 4.8 14.5 0.00 0.00 0.00 90 1016.4
20260507063742 14 59 4.8 14.5 0.00 0.00 0.00 90 1016.4
20260507061941 14 55 6.4 19.3 0.00 0.00 0.00 90 1016.4
20260507061041 14 55 4.8 16.1 0.00 0.00 0.00 90 1016.4
20260507060141 14 55 6.4 14.5 0.00 0.00 0.00 89 1016.4
20260507055242 15 50 4.8 12.9 0.00 0.00 0.00 89 1016.5
20260507052417 15 62 4.8 17.7 0.00 0.00 0.00 87 1016.6
20260507051517 15 61 8.0 16.1 0.00 0.00 0.00 86 1016.4
20260507050617 15 55 8.0 16.1 0.00 0.00 0.00 85 1016.2
20260507045716 15 67 6.4 17.7 0.00 0.00 0.00 83 1016.2
20260507044817 15 63 6.4 17.7 0.00 0.00 0.00 82 1016.2
20260507043917 15 65 8.0 17.7 0.00 0.00 0.00 81 1016.3
20260507043016 15 63 6.4 14.5 0.00 0.00 0.00 81 1016.2
20260507042117 15 58 6.4 14.5 0.00 0.00 0.00 79 1016.1
20260507041217 15 67 3.2 12.9 0.00 0.00 0.00 80 1016.1
20260507040317 15 62 6.4 12.9 0.00 0.00 0.00 81 1015.9
20260507035417 15 73 3.2 6.4 0.00 0.00 0.00 81 1015.9
20260507034517 15 38 1.6 6.4 0.00 0.00 0.00 82 1015.8
20260507033617 15 0 0.0 6.4 0.00 0.00 0.00 82 1015.7
20260507032717 15 76 1.6 6.4 0.00 0.00 0.00 84 1015.6
20260507031817 16 0 0.0 1.6 0.00 0.00 0.00 84 1015.7
20260507030917 16 0 0.0 3.2 0.00 0.00 0.00 83 1015.6
20260507030017 16 0 0.0 0.0 0.00 0.00 0.00 81 1015.5
20260507025117 16 0 0.0 1.6 0.00 0.00 0.00 80 1015.5
20260507024217 16 0 0.0 4.8 0.00 0.00 0.00 80 1015.5
20260507022417 17 0 0.0 4.8 0.00 0.00 0.00 79 1015.4
20260507021517 17 208 1.6 6.4 0.00 0.00 0.00 78 1015.4
20260507020616 17 0 0.0 3.2 0.00 0.00 0.00 78 1015.4
20260507014817 17 224 1.6 6.4 0.00 0.00 0.00 77 1015.7
20260507013917 18 214 3.2 6.4 0.00 0.00 0.00 76 1015.7
20260507013017 18 212 3.2 8.0 0.00 0.00 0.00 74 1015.7
20260507012117 18 230 3.2 9.7 0.00 0.00 0.00 72 1015.8
20260507010927 18 213 3.2 8.0 0.00 0.00 0.00 70 1015.7
20260507010026 18 240 3.2 11.3 0.00 0.00 0.00 71 1015.7
20260507005126 18 261 4.8 12.9 0.00 0.00 0.00 70 1015.7
20260507004227 19 225 4.8 11.3 0.00 0.00 0.00 68 1015.8
20260507003326 18 224 6.4 16.1 0.00 0.00 0.00 68 1015.8
20260507002426 18 223 4.8 12.9 0.00 0.00 0.00 69 1015.8
20260507001527 18 212 4.8 12.9 0.00 0.00 0.00 71 1015.8
20260507000626 18 207 1.6 11.3 0.00 0.00 0.00 76 1015.8
20260506235726 19 200 3.2 12.9 0.00 0.00 0.00 71 1015.8
20260506234827 19 238 3.2 8.0 0.00 0.00 0.00 70 1015.7
20260506233926 19 182 1.6 8.0 0.00 0.00 0.00 71 1015.9
20260506233026 19 218 4.8 9.7 0.00 0.00 0.00 70 1015.9
20260506232126 19 227 6.4 12.9 0.00 0.00 0.00 68 1016.0
20260506231226 19 237 4.8 11.3 0.00 0.00 0.00 66 1016.2
20260506230326 20 209 3.2 11.3 0.00 0.00 0.00 62 1016.3
20260506225426 19 187 3.2 11.3 0.00 0.00 0.00 63 1016.5
20260506224526 19 202 4.8 14.5 0.00 0.00 0.00 64 1016.6
20260506223627 18 222 6.4 14.5 0.00 0.00 0.00 65 1016.7
20260506222726 18 251 6.4 14.5 0.00 0.00 0.00 66 1016.8
20260506221826 18 228 6.4 12.9 0.00 0.00 0.00 67 1017.1
20260506220926 18 230 4.8 12.9 0.00 0.00 0.00 70 1017.1
20260506215126 18 204 4.8 11.3 0.00 0.00 0.00 71 1017.5
20260506214226 18 207 1.6 12.9 0.00 0.00 0.00 71 1017.7
20260506213326 18 188 3.2 12.9 0.00 0.00 0.00 73 1017.5
20260506212427 18 209 4.8 12.9 0.00 0.00 0.00 77 1017.7
20260506210627 18 178 4.8 12.9 0.00 0.00 0.00 78 1017.8
20260506205727 18 172 4.8 12.9 0.00 0.00 0.00 76 1018.0
20260506204826 18 158 4.8 12.9 0.00 0.00 0.00 78 1018.0
20260506203927 18 166 3.2 9.7 0.00 0.00 0.00 77 1018.0
20260506203026 18 173 3.2 9.7 0.00 0.00 0.00 78 1018.1
20260506201725 18 178 3.2 9.7 0.00 0.00 0.00 77 1018.2
20260506200826 18 177 1.6 12.9 0.00 0.00 0.00 75 1018.3
20260506195926 18 151 3.2 11.3 0.00 0.00 0.00 76 1018.4
20260506192326 18 195 3.2 11.3 0.00 0.00 0.00 75 1018.4
20260506191426 18 157 6.4 11.3 0.00 0.00 0.00 75 1018.4
20260506183825 18 163 3.2 11.3 0.00 0.00 0.00 77 1018.4
20260506182925 17 196 3.2 9.7 0.00 0.00 0.00 77 1018.5
20260506181126 17 151 3.2 11.3 0.00 0.00 0.00 79 1018.8
20260506180225 17 171 3.2 9.7 0.00 0.00 0.00 80 1018.7
20260506175325 17 174 3.2 9.7 0.00 0.00 0.00 80 1018.7
20260506174426 17 155 3.2 11.3 0.00 0.00 0.00 81 1018.6
20260506171726 17 190 1.6 9.7 0.00 0.00 0.00 82 1018.8
20260506170826 16 184 1.6 8.0 0.00 0.00 0.00 82 1018.7
20260506165026 16 157 1.6 8.0 0.00 0.00 0.00 84 1018.5
20260506164126 16 205 1.6 9.7 0.00 0.00 0.00 83 1018.5
20260506163225 16 161 1.6 8.0 0.00 0.00 0.00 81 1018.4
20260506162326 16 164 1.6 6.4 0.00 0.00 0.00 82 1018.5
20260506161426 16 150 1.6 8.0 0.00 0.00 0.00 82 1018.4
20260506155625 16 131 1.6 8.0 0.00 0.00 0.00 79 1018.4
20260506154726 16 146 1.6 6.4 0.00 0.00 0.00 80 1018.5
20260506153613 15 0 0.0 6.4 0.00 0.00 0.00 83 1018.5
20260506152713 15 151 1.6 6.4 0.00 0.00 0.00 86 1018.4
20260506151813 15 166 1.6 6.4 0.00 0.00 0.00 87 1018.5
20260506150913 15 166 1.6 6.4 0.00 0.00 0.00 89 1018.5
20260506150014 14 0 0.0 4.8 0.00 0.00 0.00 91 1018.3
20260506145113 14 0 0.0 4.8 0.00 0.00 0.00 92 1018.3
20260506144214 13 0 0.0 3.2 0.00 0.00 0.00 93 1018.3
20260506143313 13 0 0.0 4.8 0.00 0.00 0.00 94 1018.2
20260506142413 13 0 0.0 1.6 0.00 0.00 0.00 95 1018.1
20260506141513 13 0 0.0 1.6 0.00 0.00 0.00 95 1018.1
20260506140614 12 0 0.0 1.6 0.00 0.00 0.00 96 1018.0
20260506135713 12 0 0.0 0.0 0.00 0.00 0.00 96 1017.9
20260506134813 11 0 0.0 1.6 0.00 0.00 0.00 96 1017.8
20260506133913 11 0 0.0 3.2 0.00 0.00 0.00 95 1017.6
20260506133013 11 0 0.0 3.2 0.00 0.00 0.00 95 1017.5
20260506132113 11 0 0.0 1.6 0.00 0.00 0.00 94 1017.5
20260506131213 11 0 0.0 3.2 0.00 0.00 0.00 95 1017.5
20260506130146 11 0 0.0 3.2 0.00 0.00 0.00 94 1017.3
20260506125247 11 0 0.0 3.2 0.00 0.00 0.00 94 1017.3
20260506122547 11 35 1.6 3.2 0.00 0.00 0.00 94 1017.3
20260506121646 11 0 0.0 3.2 0.00 0.00 0.00 95 1017.3
20260506120747 11 0 0.0 3.2 0.00 0.00 0.00 94 1017.2
20260506115846 11 0 0.0 3.2 0.00 0.00 0.00 94 1017.2
20260506114947 11 0 0.0 3.2 0.00 0.00 0.00 93 1017.2
20260506112552 11 0 0.0 3.2 0.00 0.00 0.00 93 1017.2
20260506111652 11 109 1.6 3.2 0.00 0.00 0.00 93 1017.2
20260506110752 11 0 0.0 3.2 0.00 0.00 0.00 93 1017.1
20260506105853 11 0 0.0 3.2 0.00 0.00 0.00 93 1017.1
20260506104952 11 0 0.0 3.2 0.00 0.00 0.00 92 1017.0
20260506104052 12 0 0.0 3.2 0.00 0.00 0.00 93 1017.0
20260506102252 12 0 0.0 1.6 0.00 0.00 0.00 92 1016.8
20260506101352 12 0 0.0 3.2 0.00 0.00 0.00 92 1016.8
20260506100452 12 0 0.0 8.0 0.00 0.00 0.00 93 1016.9
20260506095551 12 41 1.6 8.0 0.00 0.00 0.00 93 1016.9
20260506094651 12 101 1.6 6.4 0.00 0.00 0.00 92 1016.8
20260506093752 12 0 0.0 4.8 0.00 0.00 0.00 92 1016.8
20260506092852 12 0 0.0 4.8 0.00 0.00 0.00 92 1016.8
20260506091951 12 0 0.0 4.8 0.00 0.00 0.00 92 1016.8
20260506091051 12 0 0.0 6.4 0.00 0.00 0.00 91 1016.8
20260506090152 12 63 1.6 4.8 0.00 0.00 0.00 91 1016.9
20260506085252 13 0 0.0 6.4 0.00 0.00 0.00 91 1017.1
20260506084351 13 60 3.2 8.0 0.00 0.00 0.00 91 1017.2
20260506083451 13 56 3.2 11.3 0.00 0.00 0.00 91 1017.2
20260506082552 13 58 4.8 11.3 0.00 0.00 0.00 91 1017.1
20260506081652 13 0 0.0 6.4 0.00 0.00 0.00 91 1017.3
20260506080752 13 66 3.2 9.7 0.00 0.00 0.00 91 1017.2
20260506072819 13 59 4.8 8.0 0.00 0.00 0.00 90 1017.0
20260506071919 13 59 3.2 8.0 0.00 0.00 0.00 90 1016.8
20260506071019 13 60 1.6 8.0 0.00 0.00 0.00 90 1016.7
20260506070120 13 51 1.6 4.8 0.00 0.00 0.00 90 1016.6